Flag for Dominican Republic Weather past 2 weeks in Punta Cana, Dominican Republic

Now
81 °F

Passing clouds.


Feels Like: 85 °F
Forecast: 75 / 81 °F
Wind: 12 mph from Southeast

Location: Punta Cana

Current Time: Mar 2, 2015 at 11:51:01 AM

Latest Report: Mar 2, 2015 at 11:00 AM


Visibility: N/A

Pressure: 30.12 "Hg

Humidity: 74%

Dew point: 72 °F

Location of Punta CanaLocation

Historic Weather in Punta Cana — Graph

°F

Punta Cana temperature yesterday

Maximum temperature yesterday: 82 °F (at 11:00 AM)
Minimum temperature yesterday: 75 °F (at 2:00 AM)
Average temperature yesterday: 78 °F

Past Weeks' High & Low Weather Summary

 TemperatureHumidityPressure
High84 °F (Feb 18, 2:00 PM)100% (Feb 17, 9:00 AM)30.18 "Hg (Feb 17, 9:00 AM)
Low68 °F (Feb 18, 4:00 AM)58% (Feb 16, 11:00 AM)29.89 "Hg (Feb 16, 4:00 AM)
Average78 °F78%30.05 "Hg
* Reported Feb 15 11:00 AM — Mar 2 11:00 AM, Punta Cana, Weather by CustomWeather, © 2015

Note: Actual official high and low records may vary slightly from our data, if they occured in-between our weather recording intervals... More about our weather records

Advertising

Punta Cana weather history for previous 24 hours

 ConditionsComfort  
Time TempWeatherWind HumidityBarometerVisibility
11:00 AM
Mon, Mar 2
81 °FPassing clouds.12 mph74%30.12 "HgN/A
10:00 AM81 °FPassing clouds.15 mph70%30.12 "HgN/A
9:00 AM79 °FPassing clouds.12 mph74%30.12 "HgN/A
8:00 AM75 °FScattered clouds.6 mph83%30.09 "HgN/A
7:00 AM73 °FPartly sunny.5 mph89%30.09 "HgN/A
6:00 AM75 °FLight rain. Passing clouds.14 mph83%30.07 "Hg4 mi
5:00 AM75 °FPassing clouds.16 mph83%30.07 "HgN/A
4:00 AM77 °FLight rain. Passing clouds.9 mph74%30.07 "Hg5 mi
3:00 AM77 °FPassing clouds.9 mph69%30.07 "HgN/A
2:00 AM77 °FPassing clouds.10 mph69%30.09 "HgN/A
1:00 AM77 °FPassing clouds.12 mph69%30.12 "HgN/A
12:00 AM77 °FPassing clouds.12 mph74%30.12 "HgN/A
11:00 PM
Sun, Mar 1
77 °FPassing clouds.12 mph74%30.12 "HgN/A
10:00 PM77 °FPassing clouds.7 mph74%30.12 "HgN/A
9:00 PM77 °FPassing clouds.6 mph74%30.12 "HgN/A
8:00 PM77 °FPassing clouds.16 mph74%30.09 "HgN/A
7:00 PM77 °FPassing clouds.9 mph74%30.09 "HgN/A
6:00 PM79 °FPassing clouds.12 mph70%30.07 "HgN/A
5:00 PM81 °FScattered clouds.12 mph66%30.07 "HgN/A
4:00 PM81 °FPartly sunny.12 mph70%30.09 "HgN/A
3:00 PM81 °FBroken clouds.10 mph70%30.09 "HgN/A
2:00 PM79 °FPartly sunny.9 mph65%30.12 "HgN/A
1:00 PM82 °FPartly sunny.16 mph66%30.15 "HgN/A
12:00 PM82 °FPassing clouds.14 mph66%30.15 "HgN/A
11:00 AM82 °FPassing clouds.14 mph62%30.18 "HgN/A
Weather by CustomWeather, © 2015

See weather overviewHow to use our weather pages